Location: Agen
(44.2000°N, 0.6330°E)
Time: 18:56:42
(UTC+02:00)

ISS - Visible Passes

Search period start: 25 July 2021 00:00
Search period end: 04 August 2021 00:00
Orbit: 419 x 421 km, 51.6° (Epoch: 25 July)

Date Brightness Start Highest point End Pass type
(mag) Time Alt. Az. Time Alt. Az. Time Alt. Az.
25 Jul -0.7 01:31:38 10° WNW 01:31:44 11° WNW 01:31:44 11° WNW visible
25 Jul -2.2 23:07:28 10° NW 23:10:32 31° NNE 23:12:58 14° ENE visible
26 Jul -1.9 00:44:12 10° WNW 00:45:54 27° WNW 00:45:54 27° WNW visible
26 Jul -1.9 22:20:09 10° NW 22:23:04 26° NNE 22:25:59 10° ENE visible
26 Jul -3.8 23:56:50 10° WNW 00:00:06 81° NNW 00:00:06 81° NNW visible
27 Jul -3.3 23:09:33 10° NW 23:12:53 57° NNE 23:14:20 29° E visible
28 Jul -1.0 00:46:46 10° W 00:47:17 13° W 00:47:17 13° W visible
28 Jul -2.7 22:22:15 10° NW 22:25:28 40° NNE 22:28:36 11° E visible
28 Jul -2.4 23:59:08 10° WNW 00:01:33 32° WSW 00:01:33 32° WSW visible
29 Jul -3.6 23:11:40 10° WNW 23:15:00 59° SW 23:15:51 42° SSE visible
30 Jul -3.8 22:24:17 10° WNW 22:27:41 87° NNE 22:30:11 17° ESE visible
31 Jul -1.1 00:02:16 10° W 00:03:09 13° WSW 00:03:09 13° WSW visible
31 Jul -2.1 23:14:11 10° W 23:16:53 22° SW 23:17:32 21° SSW visible
01 Aug -2.7 22:26:31 10° WNW 22:29:39 35° SW 22:31:59 15° SSE visible
03 Aug -1.2 22:29:36 10° W 22:31:22 14° SW 22:33:07 10° SSW visible
